カタログに戻る

STARLINK-35374

運用中通信VLEO
NORAD 66194·PAYLOAD·🇺🇸 United States

打ち上げ Oct 26, 2025 から Cape Canaveral Space Force Station

Loading…

次のパス (今後24時間)

TLE

最新Source: CelesTrak SupGP

元期: Sep 14, 2026, 20:52 UTC

1 66194C 25243T   26257.86993056 -.00061088  00000+0 -19646-2 0  2579
2 66194  53.1577  84.9076 0001293  84.3797 181.2986 15.31729537    12

AllMySatでSTARLINK-35374をリアルタイム追跡

Download on the App Store